Chillicothe, MO

1:59 PM CDT on October 14, 2019 (GMT -0500)
Chillicothe

Weather History for KCDJ - August, 2019

Change the Weather History Date:

Tuesday, August 20, 2019

  Actual Average (KIRK) Record (KIRK)
Temperature  
Mean Temperature 78 °F -  
Max Temperature 87 °F 83 °F 101 °F (1936)
Min Temperature 71 °F 61 °F 42 °F (1956)
Cooling Degree Days 12    
Growing Degree Days 28 (Base 50)    
Moisture  
Dew Point 73 °F    
Average Humidity 84    
Maximum Humidity 97    
Minimum Humidity 52    
Precipitation  
Precipitation 0.30 in - - ()
Sea Level Pressure  
Sea Level Pressure 29.93 in    
Wind  
Wind Speed 3 mph (SSW)    
Max Wind Speed 12 mph    
Max Gust Speed 33 mph    
Averages and records for this station are not official NWS values.
T = Trace of Precipitation, MM = Missing Value Source: NWS Daily Summary

Daily Weather History Graph

Daily Weather History Graph

Search for Another Location

Airport or City:

Astronomy

Aug. 20, 2019 Rise Set
Actual Time 6:30 AM CDT 8:03 PM CDT
Civil Twilight 6:02 AM CDT 8:32 PM CDT
Nautical Twilight 5:27 AM CDT 9:06 PM CDT
Astronomical Twilight 4:51 AM CDT 9:42 PM CDT
Moon 10:53 PM CDT (8/20) 11:08 AM CDT (8/20)
Length of Visible Light 14h 30m
Length of Day
13h 33m
Waning Gibbous, 77% of the Moon is Illuminated
Aug 20
Waning Gibbous
Aug 23
Last Quarter
Aug 30
New
Sep 5
First Quarter
Sep 13
Full

Hourly Weather History & Observations

Time (CDT) Temp. Heat Index Dew Point Humidity Pressure Visibility Wind Dir Wind Speed Gust Speed Precip Events Conditions
12:52 AM 81.0 °F 87.9 °F 77.0 °F 88% 29.94 in - Calm Calm - N/A   Unknown
2:52 AM 79.0 °F - 77.0 °F 94% 29.93 in - North 3.5 mph - N/A   Unknown
3:52 AM 75.9 °F - 75.0 °F 97% 29.88 in - Calm Calm - N/A   Unknown
4:52 AM 78.1 °F - 75.9 °F 93% 29.87 in - South 4.6 mph - N/A   Unknown
5:52 AM 79.0 °F - 75.9 °F 90% 29.88 in - SSW 5.8 mph - N/A   Unknown
6:52 AM 80.1 °F 85.4 °F 75.9 °F 87% 29.88 in - South 8.1 mph - N/A   Unknown
7:52 AM 81.0 °F 86.7 °F 75.0 °F 82% 29.91 in - Variable 4.6 mph - N/A   Unknown
8:52 AM 81.0 °F 86.7 °F 75.0 °F 82% 29.92 in - Variable 3.5 mph - N/A   Unknown
9:52 AM 81.0 °F 87.3 °F 75.9 °F 85% 29.98 in - NNE 5.8 mph - N/A   Unknown
11:52 AM 75.9 °F - 73.0 °F 91% 30.03 in - WSW 5.8 mph - 0.25 in   Unknown
12:52 PM 71.1 °F - 68.0 °F 90% 30.03 in - South 3.5 mph - 0.03 in   Unknown
1:52 PM 81.0 °F 81.9 °F 62.1 °F 52% 29.92 in - NNW 11.5 mph 33.4 mph 0.02 in   Unknown
2:52 PM 75.9 °F - 66.0 °F 71% 29.93 in - Calm Calm - N/A   Unknown
3:52 PM 79.0 °F - 69.1 °F 72% 29.89 in - Calm Calm - N/A   Unknown
4:52 PM 78.1 °F - 71.1 °F 79% 29.90 in - Calm Calm - N/A   Unknown
5:52 PM 82.0 °F 86.7 °F 72.0 °F 71% 29.88 in - Variable 6.9 mph - N/A   Unknown
6:52 PM 84.9 °F 92.1 °F 73.9 °F 69% 29.90 in - NNE 5.8 mph - N/A   Unknown
7:52 PM 79.0 °F - 73.9 °F 84% 29.92 in - Calm Calm - N/A   Unknown
8:52 PM 75.9 °F - 73.9 °F 94% 29.95 in - Calm Calm - N/A   Unknown
9:52 PM 73.9 °F - 72.0 °F 93% 29.96 in - Calm Calm - N/A   Unknown
10:52 PM 73.0 °F - 72.0 °F 96% 29.99 in - South 4.6 mph - N/A   Unknown
11:52 PM 73.9 °F - 72.0 °F 93% 29.99 in - Calm Calm - N/A   Unknown